Wind_Speed
37 32 28 26 24 22 20 20 21 21 20 22 23 20 17 15 12 12 9 6 5 3 3 3 2 3 4 6 7 8 8 7 7 8 8 8 8 8 8 8 8 9 9 10 10 10 11 11 12 12 12 13 13 13 14 14 14 14 15 15 15 15
36 32 29 27 24 23 21 21 23 23 25 27 27 25 18 17 14 13 11 7 5 3 2 2 1 2 3 6 7 8 8 7 7 7 8 8 8 9 9 10 10 10 11 11 12 12 12 12 12 11 11 12 12 13 13 14 14 14 14 15 15 15
37 33 30 29 26 25 24 24 25 26 29 29 30 27 19 18 15 15 12 9 6 4 3 1 0 1 3 5 7 8 9 8 7 7 7 8 9 9 10 11 12 13 12 12 13 13 12 12 11 11 10 10 11 12 12 13 13 13 13 14 14 15
38 35 33 31 28 27 27 29 28 29 32 31 32 28 21 20 16 15 12 10 8 5 3 2 1 1 3 5 6 8 9 8 8 7 7 8 9 10 11 12 13 13 13 13 13 13 12 12 11 11 10 10 10 10 11 11 11 12 12 12 13 14
39 37 35 33 32 30 29 31 32 32 33 33 35 30 23 21 17 15 12 10 9 7 5 3 2 1 3 4 6 7 8 9 9 8 8 8 9 10 12 13 13 13 12 12 12 12 12 12 11 11 10 10 10 10 9 9 9 10 10 11 12 13
40 39 37 36 36 33 30 32 34 34 35 36 36 31 24 21 19 16 13 11 9 7 6 4 2 1 2 4 6 7 8 9 9 9 9 9 9 11 12 13 13 12 11 11 11 12 12 12 11 10 10 10 10 11 11 10 10 10 10 11 12 12
41 41 39 38 37 33 31 33 35 36 37 38 36 32 26 22 21 18 16 13 9 8 7 5 3 2 1 3 5 6 8 9 10 10 10 9 10 10 12 12 12 12 10 10 10 11 11 11 11 10 9 9 9 10 11 11 12 12 12 13 14 14
43 42 40 40 37 33 33 33 35 38 40 39 36 36 29 24 24 20 18 16 12 10 8 6 4 3 1 2 4 6 7 9 10 10 10 10 10 10 11 12 12 11 10 9 9 10 11 12 11 10 9 8 9 9 10 11 12 13 14 15 16 17
43 42 41 40 38 35 33 29 33 39 41 40 39 39 31 26 26 22 21 18 15 12 9 7 5 4 2 2 3 5 6 8 10 11 10 10 10 10 10 10 11 11 11 10 10 11 12 12 12 11 10 9 9 9 10 11 12 13 14 15 17 18
44 44 43 42 40 38 34 30 33 40 42 41 41 41 33 30 28 24 23 21 18 15 11 10 7 6 3 1 2 4 5 7 9 10 10 10 10 9 9 9 9 10 10 10 10 11 12 12 13 12 11 10 10 10 10 11 12 13 14 15 16 17
45 45 45 43 41 38 35 32 34 39 41 42 44 41 35 33 32 28 26 24 22 17 13 12 10 8 5 2 1 3 4 6 8 10 10 10 10 9 8 8 9 9 9 9 10 11 11 11 12 13 12 11 11 11 11 12 13 14 15 16 16 17
46 47 47 45 41 37 35 34 36 39 40 42 44 39 35 35 35 32 28 23 24 20 16 16 13 10 7 4 2 2 3 5 6 9 10 10 10 9 8 8 8 9 8 8 8 10 10 10 11 12 12 12 12 12 12 13 14 15 16 17 18 18
47 48 48 46 42 39 37 37 38 39 39 40 41 38 36 36 32 32 28 23 25 22 20 19 17 14 10 6 4 2 1 3 5 7 9 10 10 9 8 8 8 9 9 8 8 9 9 9 10 11 12 12 12 13 14 14 15 16 17 18 19 19
49 50 49 47 43 41 40 39 39 38 38 39 38 37 38 34 29 30 28 24 25 24 23 22 19 17 13 10 7 4 2 1 3 5 7 9 10 9 9 9 9 9 9 9 9 9 9 9 10 11 12 12 12 14 15 15 15 16 17 19 20 21
51 51 50 48 46 44 43 42 39 37 38 40 39 40 39 35 30 28 27 25 25 26 25 23 22 20 16 13 10 7 4 2 1 3 5 7 9 10 9 9 9 10 10 10 10 10 9 9 9 11 12 12 13 14 14 15 16 17 18 19 20 21
53 52 51 50 49 46 45 43 39 39 42 42 40 40 38 34 30 28 29 28 26 26 25 23 23 21 17 14 11 9 7 5 3 3 3 6 8 10 10 9 10 11 11 12 11 11 10 9 9 10 12 12 13 14 14 15 16 17 18 19 20 21
55 54 53 52 51 48 46 43 38 38 41 43 40 39 37 33 31 30 31 32 29 27 25 23 22 20 17 13 12 10 9 8 6 4 3 4 7 9 10 10 10 11 12 13 12 12 11 9 9 10 11 12 13 14 14 15 16 17 18 19 20 21
57 56 54 53 51 49 46 42 37 35 39 41 40 38 35 32 32 31 31 32 31 28 27 24 22 19 16 12 12 13 11 10 8 6 4 2 5 7 9 10 11 11 12 12 13 12 11 10 9 10 11 12 13 13 14 15 16 17 18 19 20 21
58 56 55 55 54 50 47 43 39 37 37 39 40 39 35 33 33 32 31 32 30 29 28 25 21 17 14 10 10 13 13 12 10 8 6 3 3 6 8 10 11 11 11 12 12 13 13 11 10 11 12 12 13 13 14 15 16 17 18 19 20 22
60 58 57 57 55 50 48 46 42 38 35 37 40 39 37 37 36 33 33 32 29 29 29 26 21 16 13 10 7 9 13 13 11 10 7 4 3 5 8 10 11 11 11 12 12 13 13 13 11 11 12 12 13 13 13 14 16 17 18 19 20 21
62 60 57 56 54 50 49 48 43 39 36 38 39 40 40 40 39 35 33 32 31 30 29 26 22 17 14 10 6 5 9 12 12 11 8 6 4 5 7 9 11 11 12 12 12 13 14 13 12 12 12 12 12 13 13 14 15 17 18 19 20 22
64 61 56 54 52 50 49 47 44 41 39 39 40 41 41 40 39 36 33 32 33 32 29 26 23 19 15 10 6 4 5 9 11 11 9 8 6 5 7 9 10 12 12 12 13 13 14 14 14 13 13 12 12 13 14 14 15 16 18 19 20 22
64 61 57 54 51 50 50 48 46 43 41 41 42 43 42 40 39 37 34 34 33 32 31 27 23 20 16 11 9 7 5 7 9 11 11 10 8 7 8 9 10 11 12 13 13 13 14 15 15 14 13 13 12 13 13 14 15 15 17 20 21 21
63 62 58 55 52 51 51 51 49 45 43 44 44 44 43 41 40 39 38 36 33 33 33 30 25 21 18 14 12 10 8 7 8 10 12 11 10 9 10 10 10 11 12 13 14 14 14 15 16 15 14 13 13 13 13 14 14 15 16 19 21 21
63 62 59 56 54 53 54 56 54 50 48 49 48 47 46 43 42 42 40 36 34 36 35 32 27 23 20 18 16 13 11 8 7 8 10 11 11 11 11 11 11 12 13 14 14 15 15 15 16 16 15 14 13 13 13 13 15 16 16 18 20 21
64 63 60 58 57 56 58 59 57 55 53 51 49 47 45 43 43 42 39 37 38 39 38 34 29 25 23 22 19 16 13 9 8 9 9 10 11 12 12 12 12 13 13 14 14 16 16 16 16 16 15 14 14 13 12 12 14 15 16 18 19 20
65 63 61 60 59 59 61 61 59 57 54 50 47 45 43 42 42 41 39 40 41 42 41 37 32 26 24 24 22 18 14 10 9 10 10 10 11 13 13 12 13 14 14 14 14 15 16 16 16 16 16 15 14 13 13 13 13 14 16 17 18 18
67 64 62 62 61 61 62 62 60 57 54 52 49 46 43 42 42 42 41 39 40 43 43 39 33 27 25 26 23 19 16 13 11 12 12 11 11 13 14 14 13 14 15 16 15 15 16 16 16 16 16 15 14 14 13 13 13 13 14 16 17 17
68 66 63 63 63 62 62 63 62 58 54 52 51 48 45 44 45 44 41 39 39 40 41 40 34 27 27 28 24 20 18 16 14 14 13 11 12 14 16 15 15 15 16 17 16 15 16 16 16 16 16 15 15 15 14 13 13 12 12 14 16 17
69 67 65 64 64 63 63 62 61 58 55 54 53 50 48 47 47 46 43 40 38 36 38 40 35 29 30 29 25 21 20 19 18 17 14 12 12 14 17 17 16 16 17 17 17 16 16 16 16 16 17 16 16 16 15 13 13 12 12 13 15 16
69 68 66 66 65 64 63 61 57 55 54 55 55 53 50 49 48 46 44 42 38 35 39 42 36 31 32 30 25 22 22 22 21 20 17 14 13 14 16 18 17 17 17 18 17 17 17 17 16 17 17 17 16 16 16 14 13 11 12 13 14 15
69 68 68 67 66 64 63 61 58 55 54 55 56 54 52 50 49 47 45 42 39 37 41 44 37 33 32 30 27 24 23 24 23 23 20 16 14 14 15 17 18 18 18 18 18 17 17 18 17 17 18 17 17 17 16 15 14 12 12 13 13 14
70 69 68 67 66 64 63 62 60 58 57 56 56 55 54 52 51 49 46 43 41 38 41 44 38 33 33 31 28 26 25 25 26 25 21 17 16 15 15 17 18 18 18 18 18 17 17 18 18 18 18 18 17 17 16 16 15 13 12 13 12 13
70 69 69 68 66 64 63 62 61 61 61 59 56 56 57 56 54 52 48 44 42 38 39 42 39 34 34 32 30 28 27 27 27 25 21 18 17 17 17 17 18 19 18 18 18 17 18 18 18 18 18 18 17 17 17 17 16 14 12 12 12 13
70 70 69 68 67 65 63 62 64 64 63 59 56 55 54 54 53 52 47 43 41 40 41 42 40 36 35 34 31 30 28 28 27 24 20 19 19 18 18 18 18 19 18 18 17 17 18 18 18 19 18 18 17 17 17 17 17 16 14 13 13 13
69 69 68 68 67 67 65 64 66 66 62 59 57 56 51 49 51 51 46 41 38 40 42 42 40 37 36 34 32 31 30 29 26 24 21 20 20 20 19 18 18 19 18 18 17 17 18 18 18 19 18 17 17 17 17 18 18 18 16 15 14 13
70 69 68 68 68 68 67 66 66 65 63 61 59 56 52 49 51 50 46 41 34 32 37 40 38 36 35 34 33 32 31 29 27 25 22 21 21 20 20 20 20 20 20 19 17 17 18 18 19 19 18 18 17 17 18 19 19 19 17 16 15 15
Wind_Direction
232 231 225 224 219 214 211 202 207 217 220 223 231 227 188 177 183 163 163 182 194 216 245 270 287 323 341 353 357 356 358 4 2 1 7 10 9 5 1 359 360 359 357 352 352 357 357 352 346 342 337 332 327 323 322 321 321 320 318 316 315 314
228 224 220 218 211 206 203 202 211 213 219 225 235 238 201 180 182 164 162 174 183 202 229 247 277 330 359 5 2 359 0 6 9 10 10 10 10 8 5 5 7 6 4 1 1 4 2 356 349 343 336 329 324 321 319 318 318 318 317 315 314 312
225 220 216 215 210 207 202 203 211 214 220 226 236 240 208 186 180 161 161 169 176 189 202 201 220 348 17 12 4 1 2 5 11 17 14 11 10 9 10 11 12 10 9 8 8 8 4 357 351 344 337 329 323 318 315 314 314 314 315 315 314 313
223 219 215 215 213 209 204 204 207 214 222 226 235 234 206 191 176 162 169 171 172 177 182 179 159 35 24 11 7 4 4 6 9 16 17 15 12 9 12 15 18 15 12 12 10 6 4 359 353 348 343 335 327 322 317 314 313 313 316 317 318 317
221 218 216 217 217 211 207 207 203 211 222 224 232 232 209 189 168 166 178 175 177 178 177 174 153 76 26 13 12 10 7 7 6 10 16 17 15 11 10 14 19 21 17 14 11 4 1 360 356 352 346 342 338 334 332 329 326 323 322 323 323 323
221 219 217 218 220 214 212 211 201 206 220 224 231 232 213 181 163 172 178 178 184 174 173 175 159 104 33 22 17 14 12 9 7 8 13 17 18 15 10 10 14 21 21 15 12 5 0 0 359 355 349 347 346 345 347 349 346 342 339 336 333 332
220 220 219 221 222 217 217 214 200 204 217 225 231 231 213 174 164 178 176 178 178 168 176 177 165 140 57 34 22 16 14 10 10 10 10 16 19 17 11 7 7 14 21 16 10 4 1 1 1 357 352 352 352 351 354 354 352 349 347 347 344 341
219 220 220 221 222 219 221 214 200 204 215 224 229 228 218 177 170 182 179 182 176 173 184 178 173 150 100 46 27 16 16 10 12 13 10 15 20 19 11 4 0 4 13 13 7 1 359 1 2 1 358 358 359 358 357 354 352 350 350 350 347 345
217 220 219 219 219 218 223 215 202 207 216 224 226 227 220 181 173 184 182 186 176 174 186 179 174 152 124 66 34 18 18 12 13 14 11 14 18 20 13 3 357 357 2 6 5 0 359 0 1 2 2 2 3 0 357 354 352 351 351 350 348 345
215 219 219 217 217 217 220 216 208 210 216 224 227 230 222 184 173 185 186 184 173 172 183 181 183 176 165 122 30 20 18 14 13 13 12 13 15 19 14 4 357 354 357 0 2 359 357 358 357 358 360 360 0 358 356 355 354 353 351 349 347 345
213 216 217 216 215 216 218 216 215 217 220 224 228 233 224 189 175 185 191 185 174 172 183 188 191 186 169 144 54 24 18 11 12 12 12 11 12 15 11 7 2 355 354 358 1 358 355 355 352 351 354 354 353 353 352 353 354 353 350 347 345 344
211 214 216 215 215 216 217 218 219 223 225 226 227 231 223 197 182 184 189 185 175 174 185 191 188 181 169 155 137 46 18 4 5 12 14 11 10 9 8 10 5 357 354 356 360 357 355 352 347 345 347 347 346 345 346 350 353 352 348 344 342 341
208 212 216 216 214 214 215 219 221 225 227 226 226 227 215 201 191 183 182 182 176 177 188 190 189 190 190 186 168 130 42 356 355 6 13 14 10 6 8 7 2 359 355 355 359 358 356 350 344 342 341 340 340 339 340 346 349 348 345 341 338 338
206 211 217 217 214 212 214 220 224 226 228 226 222 218 205 199 199 184 177 182 177 181 192 191 194 199 206 207 182 157 148 348 342 356 9 14 11 8 9 3 359 360 357 355 357 355 354 351 345 341 336 333 333 333 335 342 344 343 341 338 337 337
205 212 218 218 215 211 213 218 223 227 229 224 216 210 203 200 203 189 179 187 185 187 195 195 200 206 215 214 190 174 174 186 286 331 356 12 13 11 9 3 358 358 359 358 355 349 347 350 346 339 331 328 328 328 332 337 338 338 337 336 336 336
205 213 218 219 215 211 212 214 220 229 224 214 208 207 207 204 203 191 184 193 195 195 199 201 205 209 214 210 194 189 188 193 226 267 329 3 10 12 10 4 2 0 360 358 352 345 342 346 344 334 325 322 324 325 329 332 332 334 334 335 335 336
206 212 218 219 215 211 212 212 217 224 212 202 203 207 210 208 204 194 189 195 197 200 204 206 210 210 208 203 194 193 190 196 217 239 278 349 3 9 9 5 5 4 360 355 350 345 339 340 337 327 320 319 320 323 326 328 329 331 332 333 334 335
208 212 216 218 215 211 211 211 213 214 207 203 205 209 212 211 207 202 197 196 195 200 207 211 213 208 203 197 189 190 191 197 210 229 248 315 352 2 5 4 8 6 360 353 348 345 340 336 331 321 316 315 317 320 323 324 326 328 330 332 334 335
210 213 215 215 213 211 210 210 210 209 211 211 208 210 216 214 212 210 205 202 200 203 208 214 214 202 194 188 179 182 189 198 208 221 235 263 326 350 357 0 7 6 359 353 348 346 341 338 330 318 312 312 315 318 320 321 322 325 329 332 333 335
210 213 214 214 213 211 210 212 211 207 209 213 211 212 217 218 216 212 207 208 210 211 212 214 213 200 192 188 175 174 184 199 210 220 231 248 293 334 346 351 360 2 358 353 350 346 342 340 333 319 311 311 315 317 316 317 320 324 328 331 332 334
210 213 215 215 215 212 211 213 213 208 207 211 214 215 218 221 219 213 210 213 217 218 219 218 213 206 197 190 188 180 185 200 211 221 233 248 279 316 330 338 348 355 356 352 349 345 341 339 334 323 314 312 314 314 313 314 318 323 325 328 332 333
212 213 215 217 216 214 213 213 214 211 208 211 215 217 220 224 224 219 214 216 221 223 225 223 215 209 202 193 204 221 204 202 211 223 234 250 268 294 312 323 336 345 352 349 346 343 339 336 333 328 319 313 312 311 311 313 317 323 325 327 331 334
212 213 216 218 217 216 214 213 214 212 208 211 215 218 221 225 227 225 220 218 222 225 226 224 216 210 205 202 213 229 227 210 217 227 235 248 261 276 294 309 323 335 344 345 342 339 337 334 331 329 322 313 311 308 307 311 315 321 325 327 331 335
212 212 214 216 216 216 214 211 212 213 210 211 214 217 219 221 225 226 223 220 223 227 227 224 217 210 206 209 215 223 231 234 238 235 234 244 255 268 283 297 311 325 336 339 337 336 335 332 329 328 324 315 308 305 306 310 314 321 326 327 330 336
212 213 212 213 214 216 215 211 210 211 210 211 212 213 214 217 221 224 224 223 225 229 229 224 217 209 206 212 215 219 227 244 255 240 233 241 252 263 275 289 303 315 326 332 333 332 332 330 327 327 325 316 306 303 306 308 312 320 326 328 331 336
211 212 212 211 212 217 217 211 209 210 210 211 211 211 211 214 219 223 225 226 227 230 228 222 215 208 205 211 216 218 222 236 253 247 241 242 250 259 268 282 295 304 315 324 328 329 329 327 324 325 325 316 305 302 303 304 309 317 324 329 333 335
211 211 213 212 212 216 216 209 208 211 211 212 212 212 212 213 219 222 224 228 230 231 227 220 215 208 204 211 217 218 220 229 245 250 248 246 249 255 262 274 286 295 305 315 322 325 326 324 321 323 323 314 304 300 300 303 309 317 324 330 332 333
211 211 212 213 214 217 216 209 208 211 211 212 212 211 212 215 220 222 223 228 232 234 229 220 215 208 204 212 216 217 220 225 240 250 251 250 253 256 258 265 276 287 297 306 317 322 323 321 319 320 320 313 303 299 299 303 308 316 325 328 329 330
211 210 210 213 214 216 217 213 210 210 211 213 212 211 213 216 220 223 224 226 231 236 231 220 213 206 206 213 215 218 223 226 237 247 250 253 258 261 259 259 268 280 290 300 311 320 321 319 318 318 317 312 303 298 299 303 307 315 325 327 327 330
210 210 210 212 214 216 218 216 214 213 212 214 212 210 213 217 220 222 224 225 229 233 225 215 210 205 208 213 214 218 225 229 237 244 248 252 258 264 261 257 262 274 284 295 308 320 321 317 317 317 316 312 303 298 300 303 305 314 324 324 324 328
210 210 210 212 214 216 218 218 217 216 216 218 214 210 213 219 222 223 224 225 228 228 218 211 207 205 208 212 213 218 227 232 238 244 247 249 256 266 265 258 259 269 280 291 304 318 321 317 316 315 315 312 303 298 301 303 304 312 320 319 320 325
210 210 210 212 213 215 218 218 218 218 219 220 218 213 213 218 222 224 225 226 228 227 220 211 205 204 208 211 214 220 228 233 238 244 248 250 258 271 272 262 257 266 278 288 300 315 320 318 316 315 314 312 303 298 300 302 302 308 313 314 319 324
210 210 211 212 213 216 217 216 218 220 220 220 219 217 215 218 222 224 224 226 228 230 226 214 205 204 208 211 215 221 229 234 238 244 249 254 262 272 278 269 259 263 275 285 297 311 319 318 316 315 313 310 303 298 299 299 298 302 307 310 317 322
210 210 210 212 213 215 216 215 217 220 221 221 221 221 219 218 221 224 224 225 227 231 228 216 206 205 209 213 218 222 228 235 239 244 249 257 263 269 277 273 260 261 272 283 295 310 319 319 316 312 309 308 303 298 296 296 295 297 300 305 313 318
209 210 210 211 212 214 214 214 216 218 220 221 223 227 226 223 223 224 224 225 228 233 230 215 206 208 212 217 221 224 230 235 240 245 249 257 262 267 276 272 259 259 270 281 293 308 317 318 314 308 305 305 303 298 295 294 294 294 295 300 307 311
208 210 210 210 212 213 214 215 216 217 219 220 223 227 230 230 227 224 223 226 229 232 225 209 205 210 213 219 224 226 232 236 240 245 249 255 262 267 275 272 260 260 269 279 291 305 313 316 311 305 303 303 301 298 296 294 293 293 293 298 304 307
207 209 210 210 212 213 214 215 217 218 218 219 222 225 229 231 226 221 222 222 221 221 212 202 206 213 215 220 226 229 234 238 241 245 249 255 262 269 275 274 264 262 269 277 289 302 310 313 309 303 302 302 301 298 297 295 293 291 292 296 301 305
Height
5852 5854 5856 5858 5858 5859 5861 5862 5863 5864 5865 5865 5866 5867 5868 5869 5870 5869 5870 5873 5874 5874 5875 5875 5875 5875 5875 5874 5874 5874 5874 5874 5873 5873 5872 5871 5871 5870 5869 5869 5868 5868 5868 5867 5866 5865 5863 5863 5862 5861 5861 5860 5859 5858 5858 5857 5857 5856 5855 5854 5853 5852
5850 5852 5854 5855 5856 5857 5859 5860 5862 5863 5863 5863 5864 5866 5867 5868 5868 5868 5869 5871 5872 5873 5874 5874 5875 5875 5874 5874 5874 5874 5874 5874 5873 5873 5872 5871 5870 5870 5869 5869 5868 5868 5867 5866 5865 5864 5863 5862 5862 5861 5860 5860 5859 5858 5857 5857 5856 5856 5855 5854 5853 5851
5848 5850 5852 5853 5854 5855 5857 5859 5860 5861 5861 5862 5862 5864 5866 5866 5867 5867 5868 5870 5871 5873 5873 5874 5874 5874 5874 5873 5873 5873 5873 5873 5873 5872 5872 5871 5870 5869 5869 5868 5867 5867 5866 5866 5865 5863 5862 5862 5861 5861 5860 5860 5859 5858 5857 5856 5856 5855 5854 5853 5852 5851
5845 5847 5849 5850 5852 5853 5855 5856 5859 5859 5859 5860 5861 5862 5864 5864 5865 5866 5867 5869 5870 5872 5872 5873 5873 5873 5873 5873 5873 5873 5873 5872 5872 5872 5871 5871 5870 5869 5868 5868 5867 5867 5866 5865 5864 5863 5862 5862 5861 5861 5860 5859 5858 5858 5857 5856 5855 5854 5854 5853 5852 5850
5842 5845 5846 5848 5849 5850 5852 5854 5856 5857 5857 5858 5858 5860 5862 5862 5863 5865 5866 5867 5869 5870 5871 5872 5872 5872 5872 5872 5872 5872 5872 5872 5872 5872 5871 5871 5869 5869 5868 5867 5868 5867 5866 5865 5864 5863 5862 5862 5861 5861 5860 5859 5858 5857 5857 5856 5855 5854 5853 5852 5851 5850
5840 5842 5844 5845 5846 5847 5849 5851 5853 5854 5855 5855 5855 5858 5860 5860 5861 5864 5865 5866 5868 5869 5870 5871 5871 5871 5871 5871 5872 5872 5871 5871 5871 5871 5871 5870 5869 5868 5867 5867 5867 5867 5867 5865 5864 5863 5862 5862 5862 5861 5860 5859 5858 5857 5856 5855 5854 5853 5852 5851 5850 5849
5837 5839 5841 5842 5843 5845 5846 5848 5850 5852 5852 5852 5853 5857 5859 5858 5859 5863 5864 5865 5867 5868 5869 5870 5870 5870 5871 5871 5871 5871 5871 5871 5871 5871 5871 5870 5869 5868 5867 5867 5867 5867 5867 5866 5865 5864 5863 5862 5862 5861 5860 5859 5858 5857 5855 5854 5853 5852 5851 5850 5849 5848
5834 5836 5838 5839 5841 5842 5843 5846 5848 5849 5849 5850 5852 5854 5857 5857 5858 5862 5862 5864 5865 5867 5868 5869 5869 5869 5870 5870 5870 5871 5871 5871 5871 5870 5870 5870 5869 5868 5867 5866 5866 5866 5866 5866 5865 5864 5863 5862 5862 5861 5860 5859 5857 5856 5855 5854 5853 5852 5851 5850 5848 5847
5831 5833 5835 5836 5838 5839 5841 5844 5846 5847 5847 5848 5849 5851 5855 5856 5857 5860 5861 5862 5864 5865 5867 5868 5868 5868 5869 5869 5870 5870 5870 5871 5871 5870 5870 5870 5869 5868 5868 5867 5866 5865 5865 5865 5864 5863 5862 5862 5861 5860 5859 5858 5857 5856 5855 5854 5853 5852 5850 5849 5848 5847
5828 5830 5832 5834 5836 5837 5839 5842 5844 5844 5845 5847 5848 5849 5853 5854 5856 5859 5859 5860 5862 5864 5865 5866 5867 5867 5868 5868 5869 5870 5870 5870 5870 5870 5870 5869 5869 5868 5868 5867 5866 5865 5864 5864 5864 5863 5862 5861 5861 5860 5859 5858 5857 5856 5855 5854 5853 5851 5850 5849 5848 5846
5825 5827 5829 5831 5833 5835 5837 5840 5841 5842 5843 5845 5846 5847 5851 5852 5854 5857 5857 5858 5861 5862 5864 5865 5866 5866 5867 5868 5868 5869 5869 5870 5870 5870 5869 5869 5869 5868 5868 5867 5866 5865 5864 5864 5863 5863 5862 5861 5860 5860 5859 5858 5857 5856 5855 5854 5853 5851 5850 5848 5847 5846
5821 5824 5826 5828 5831 5833 5835 5837 5838 5840 5841 5843 5843 5844 5848 5850 5851 5853 5855 5857 5859 5861 5862 5863 5864 5865 5866 5867 5868 5868 5869 5869 5870 5870 5869 5869 5869 5868 5868 5866 5866 5865 5864 5864 5863 5863 5862 5861 5860 5859 5859 5858 5857 5856 5855 5854 5852 5851 5849 5848 5847 5845
5817 5820 5823 5825 5828 5829 5831 5833 5835 5837 5838 5840 5841 5842 5846 5848 5849 5850 5853 5856 5857 5859 5860 5861 5862 5864 5865 5866 5867 5868 5868 5869 5869 5869 5869 5869 5869 5868 5867 5866 5865 5865 5864 5864 5863 5863 5862 5861 5860 5859 5859 5858 5857 5856 5855 5853 5852 5850 5849 5847 5846 5845
5813 5817 5820 5822 5824 5825 5828 5830 5832 5834 5835 5837 5839 5840 5843 5845 5847 5848 5851 5854 5855 5857 5858 5859 5861 5862 5863 5865 5866 5867 5867 5868 5868 5869 5869 5869 5869 5868 5867 5866 5865 5865 5864 5864 5863 5863 5862 5861 5860 5859 5858 5858 5857 5856 5854 5853 5851 5850 5848 5847 5845 5844
5810 5813 5816 5819 5820 5821 5824 5827 5829 5831 5833 5835 5836 5837 5840 5842 5845 5846 5849 5852 5854 5855 5856 5858 5859 5860 5862 5863 5865 5865 5866 5867 5867 5868 5868 5869 5868 5868 5866 5866 5865 5865 5864 5864 5863 5863 5862 5861 5860 5859 5858 5857 5857 5855 5854 5853 5851 5850 5848 5847 5845 5843
5807 5810 5812 5815 5816 5817 5820 5823 5826 5828 5829 5832 5833 5835 5837 5839 5842 5844 5846 5850 5852 5853 5855 5856 5857 5859 5861 5862 5863 5864 5865 5865 5866 5867 5868 5868 5868 5867 5866 5865 5865 5864 5864 5863 5863 5863 5862 5861 5859 5859 5858 5857 5856 5855 5854 5853 5851 5849 5848 5846 5844 5842
5803 5807 5809 5811 5812 5814 5817 5820 5823 5824 5826 5828 5831 5834 5835 5837 5840 5842 5844 5847 5850 5852 5853 5855 5856 5858 5860 5860 5861 5862 5864 5864 5865 5866 5867 5867 5867 5866 5865 5865 5865 5864 5864 5863 5863 5863 5862 5860 5859 5858 5858 5857 5856 5855 5854 5852 5851 5849 5847 5845 5844 5842
5798 5801 5804 5808 5810 5812 5814 5817 5820 5822 5824 5826 5828 5832 5833 5836 5838 5840 5843 5845 5847 5849 5851 5853 5855 5857 5859 5859 5859 5861 5862 5863 5864 5865 5865 5866 5866 5865 5865 5865 5864 5864 5863 5863 5863 5862 5861 5860 5859 5858 5857 5856 5855 5854 5853 5852 5850 5848 5847 5845 5843 5841
5793 5797 5800 5803 5806 5809 5811 5813 5817 5819 5821 5824 5826 5829 5831 5834 5837 5840 5842 5843 5846 5848 5849 5851 5853 5856 5857 5857 5858 5859 5860 5861 5862 5863 5864 5864 5864 5864 5864 5864 5864 5864 5863 5863 5862 5862 5861 5860 5859 5858 5857 5856 5855 5853 5852 5851 5849 5848 5846 5844 5842 5841
5788 5792 5795 5798 5801 5806 5808 5810 5814 5817 5819 5821 5824 5827 5830 5832 5834 5838 5840 5842 5845 5846 5848 5850 5852 5855 5856 5856 5857 5858 5859 5860 5861 5862 5862 5863 5863 5863 5863 5863 5863 5863 5863 5862 5862 5861 5860 5860 5859 5858 5856 5855 5854 5853 5851 5850 5849 5847 5845 5844 5842 5840
5783 5786 5791 5795 5798 5803 5806 5808 5812 5815 5817 5820 5823 5825 5827 5829 5832 5836 5839 5841 5843 5845 5846 5848 5850 5853 5854 5855 5855 5856 5857 5858 5859 5860 5861 5861 5861 5861 5861 5862 5862 5862 5862 5861 5861 5860 5859 5859 5858 5857 5855 5854 5853 5852 5851 5849 5848 5847 5845 5843 5842 5840
5777 5782 5788 5792 5796 5801 5804 5807 5810 5812 5815 5818 5821 5824 5826 5828 5831 5834 5838 5840 5841 5843 5845 5847 5848 5851 5852 5853 5854 5855 5856 5857 5858 5859 5859 5859 5859 5860 5860 5860 5861 5861 5861 5860 5860 5859 5858 5857 5856 5855 5854 5853 5853 5851 5850 5849 5847 5846 5844 5842 5841 5839
5773 5778 5784 5789 5794 5798 5802 5805 5806 5808 5811 5815 5818 5821 5824 5826 5828 5831 5835 5837 5839 5841 5843 5844 5846 5849 5850 5851 5852 5854 5855 5856 5856 5857 5857 5857 5858 5858 5859 5859 5859 5860 5860 5859 5858 5858 5857 5856 5855 5854 5853 5852 5851 5850 5849 5848 5847 5845 5844 5842 5840 5839
5769 5774 5779 5785 5791 5795 5798 5800 5801 5804 5808 5811 5814 5818 5820 5822 5825 5827 5830 5834 5837 5839 5840 5842 5845 5847 5848 5849 5851 5852 5853 5854 5855 5855 5855 5856 5857 5857 5858 5858 5858 5858 5858 5858 5857 5857 5856 5855 5854 5853 5852 5852 5850 5849 5848 5847 5845 5844 5843 5841 5839 5838
5765 5769 5774 5780 5787 5790 5792 5793 5795 5798 5801 5804 5807 5810 5814 5818 5821 5824 5827 5832 5835 5837 5838 5841 5843 5845 5846 5848 5849 5850 5851 5852 5853 5853 5854 5855 5856 5856 5857 5857 5857 5857 5857 5857 5856 5855 5855 5854 5853 5852 5851 5851 5849 5848 5847 5846 5844 5843 5842 5841 5839 5837
5760 5765 5770 5775 5780 5783 5785 5788 5791 5793 5796 5800 5804 5807 5812 5817 5820 5823 5827 5830 5832 5834 5836 5838 5840 5842 5844 5846 5847 5849 5850 5851 5851 5852 5852 5853 5854 5855 5855 5855 5856 5856 5856 5856 5855 5854 5853 5852 5852 5851 5850 5849 5848 5847 5846 5845 5844 5843 5841 5840 5838 5837
5757 5762 5767 5770 5774 5775 5778 5784 5788 5790 5795 5800 5805 5808 5812 5815 5818 5821 5825 5827 5829 5831 5833 5836 5838 5840 5842 5844 5846 5847 5848 5849 5849 5850 5851 5852 5853 5853 5854 5854 5854 5854 5854 5855 5854 5853 5852 5851 5850 5850 5849 5848 5847 5846 5845 5844 5843 5842 5840 5839 5837 5836
5753 5758 5763 5766 5768 5769 5774 5782 5786 5789 5794 5799 5803 5806 5809 5812 5814 5817 5820 5823 5825 5827 5830 5833 5836 5838 5840 5842 5844 5845 5846 5847 5848 5849 5849 5851 5851 5852 5852 5853 5853 5853 5853 5853 5853 5852 5851 5850 5849 5849 5848 5847 5846 5845 5845 5844 5843 5841 5840 5838 5836 5835
5748 5754 5759 5761 5763 5765 5770 5778 5783 5787 5792 5796 5799 5803 5806 5808 5809 5812 5816 5820 5821 5823 5826 5831 5834 5836 5838 5840 5842 5844 5845 5846 5847 5847 5848 5850 5850 5851 5851 5852 5852 5852 5852 5852 5852 5851 5850 5849 5848 5847 5847 5846 5845 5844 5844 5843 5842 5840 5839 5837 5835 5834
5743 5750 5754 5756 5759 5763 5766 5773 5780 5785 5789 5793 5796 5799 5802 5804 5806 5809 5813 5816 5818 5820 5824 5828 5831 5833 5835 5838 5840 5842 5843 5844 5845 5846 5847 5848 5849 5849 5850 5850 5850 5850 5850 5850 5850 5849 5848 5847 5847 5846 5845 5845 5844 5844 5843 5842 5841 5839 5838 5837 5835 5833
5739 5745 5750 5752 5755 5760 5764 5771 5779 5784 5787 5789 5792 5796 5799 5802 5804 5806 5810 5813 5816 5819 5821 5825 5828 5830 5833 5835 5838 5840 5841 5842 5843 5844 5845 5846 5847 5847 5848 5848 5849 5849 5849 5849 5848 5847 5846 5845 5845 5845 5844 5844 5843 5843 5842 5841 5839 5838 5837 5835 5834 5832
5734 5740 5745 5748 5752 5757 5762 5770 5776 5781 5783 5786 5789 5793 5796 5799 5801 5804 5808 5811 5813 5816 5819 5822 5825 5828 5831 5833 5835 5837 5838 5840 5841 5842 5843 5845 5846 5846 5847 5847 5847 5847 5847 5847 5846 5846 5845 5844 5843 5843 5843 5842 5842 5842 5841 5840 5838 5837 5836 5834 5833 5832
5730 5736 5741 5745 5749 5754 5760 5767 5773 5777 5779 5782 5785 5789 5792 5795 5798 5801 5805 5808 5811 5813 5816 5820 5823 5825 5828 5831 5833 5834 5836 5837 5839 5840 5842 5843 5844 5845 5845 5845 5845 5845 5845 5845 5845 5844 5844 5843 5842 5842 5841 5841 5841 5841 5840 5839 5837 5836 5835 5833 5832 5831
5726 5731 5737 5742 5746 5751 5757 5764 5768 5772 5775 5779 5783 5785 5788 5790 5794 5798 5802 5805 5808 5810 5813 5818 5820 5822 5825 5827 5829 5831 5833 5835 5836 5838 5840 5841 5842 5843 5843 5843 5843 5844 5844 5843 5843 5843 5842 5841 5841 5840 5840 5839 5839 5839 5839 5838 5836 5835 5834 5832 5831 5830
5721 5727 5733 5738 5743 5748 5754 5759 5763 5767 5771 5776 5780 5782 5784 5788 5791 5796 5800 5802 5805 5806 5809 5815 5818 5819 5822 5824 5826 5829 5831 5833 5835 5836 5838 5839 5840 5841 5842 5842 5842 5842 5842 5842 5842 5841 5841 5840 5840 5839 5838 5837 5837 5837 5837 5837 5835 5834 5832 5831 5830 5829
5717 5723 5729 5735 5740 5744 5749 5754 5757 5762 5767 5772 5775 5777 5781 5785 5789 5794 5798 5800 5801 5802 5805 5811 5814 5816 5819 5822 5824 5826 5829 5831 5833 5834 5836 5838 5838 5839 5840 5840 5840 5840 5840 5840 5840 5840 5840 5840 5839 5837 5836 5836 5836 5835 5835 5835 5834 5832 5831 5830 5829 5829
5713 5719 5725 5731 5735 5739 5744 5748 5753 5758 5762 5766 5770 5774 5778 5782 5786 5792 5795 5797 5798 5800 5803 5807 5811 5814 5817 5820 5822 5824 5826 5828 5830 5832 5834 5836 5837 5837 5838 5838 5838 5839 5839 5839 5839 5838 5839 5838 5837 5836 5835 5834 5834 5833 5833 5833 5832 5831 5830 5829 5828 5827